Regional Weather Roundup
Issued by NWS

Home | Current Version | Previous Version | Graphics & Text | Print | Product List | Glossary On
Versions: 1 2 3 4 5 6 7 8 9 10 11 12 13 14 15 16 17 18 19 20 21 22 23 24 25 26 27 28 29 30 31 32 33 34 35 36 37 38 39 40 41 42 43 44 45 46 47 48 49 50
000
ASUS43 KDMX 281607
RWRIA

WEATHER ROUNDUP FOR IOWA
NATIONAL WEATHER SERVICE DES MOINES IA
1100 AM CDT MON JUL 28 2014

NOTE: "FAIR" INDICATES FEW OR NO CLOUDS BELOW 12,000 FEET WITH NO
SIGNIFICANT WEATHER AND/OR OBSTRUCTIONS TO VISIBILITY.

* - THESE STATIONS ARE NOT NWS STATIONS...THUS NOT UNDER NWS
QUALITY CONTROL.  THEY ALSO DO NOT REPORT WEATHER SUCH
AS PRECIPITATION OR FOG.

IAZ001>003-012>014-020>022-031>034-043>046-281700-
   NORTHWEST IOWA

CITY           SKY/WX    TMP DP  RH WIND       PRES   REMARKS
CARROLL *      CLOUDY    66  59  77 VRB5      30.24S
CHEROKEE *     CLOUDY    64  61  88 N7        30.26S
DENISON *      PTSUNNY   66  61  82 VRB3      30.24S
LE MARS *      PTSUNNY   68  59  73 N12       30.27S
ORANGE CITY *  PTSUNNY   68  57  68 N9        30.27R
SHELDON *      CLOUDY    66  59  77 N10       30.26S
SIOUX CITY     PTSUNNY   71  56  58 N13       30.26F
STORM LAKE *   PTSUNNY   64  63  94 N8        30.26S
$$

IAZ055>058-069>071-079>083-090>094-281700-
   SOUTHWEST IOWA

CITY           SKY/WX    TMP DP  RH WIND       PRES   REMARKS
ATLANTIC *     CLOUDY    66  59  77 VRB5      30.25R
AUDUBON *      MOSUNNY   70  63  78 N6        30.26S
CLARINDA *     CLOUDY    64  61  88 N6        30.27R
COUNCIL BLFS * CLOUDY    68  61  77 N9        30.25S
CRESTON *      PTSUNNY   68  57  68 VRB3      30.24R
HARLAN  *      CLOUDY    64  61  88 N7        30.29S
LAMONI         PTSUNNY   70  58  65 N6        30.23R
RED OAK *      CLOUDY    66  61  82 CALM      30.26R
SHENANDOAH *   CLOUDY    68  61  77 NW7       30.27R
$$

IAZ047>049-059>061-072>074-084-281700-
   CENTRAL IOWA

CITY           SKY/WX    TMP DP  RH WIND       PRES   REMARKS
AMES           PTSUNNY   70  54  56 NE6       30.22R
ANKENY *       CLOUDY    70  54  56 VRB5      30.22S
CHARITON *     SUNNY     68  55  64 N8        30.22S
DES MOINES     MOSUNNY   73  53  49 N7        30.21S
GRINNELL*      SUNNY     68  57  68 N7        30.23R
KNOXVILLE *    CLOUDY    70  54  56 VRB7      30.21R
MARSHALLTOWN   PTSUNNY   70  54  56 N10       30.21R
PELLA *        SUNNY     72  55  56 N3        30.22S
PERRY *        PTSUNNY   70  57  64 CALM      30.23S
$$

IAZ004>006-015-016-023>025-035-036-281700-
   NORTH CENTRAL IOWA

CITY           SKY/WX    TMP DP  RH WIND       PRES   REMARKS
ALGONA *       CLOUDY    64  61  88 NE6G13    30.24S
CLARION *      CLOUDY    70  54  56 N7        30.23S
ESTHERVILLE    CLOUDY    66  58  75 NW7       30.25
FORT DODGE *   PTSUNNY   68  57  68 NE6       30.24S
MASON CITY     PTSUNNY   71  59  65 NW7       30.23S
FOREST CITY *  CLOUDY    70  59  68 N8        30.23R
IOWA FALLS *   PTSUNNY   70  55  60 NW3       30.22F
$$

IAZ007>011-017>019-026>030-037>042-050>054-066-281700-
   NORTHEAST IOWA

CITY           SKY/WX    TMP DP  RH WIND       PRES   REMARKS
CEDAR RAPIDS   SUNNY     69  49  48 N14       30.18R
CHARLES CITY * SUNNY     70  57  64 NE7G13    30.20F
CLINTON *      SUNNY     66  50  55 N15       30.17S
DECORAH *      MOSUNNY   68  54  60 VRB7      30.19S
DUBUQUE        SUNNY     66  49  54 N18G25    30.16S
MONTICELLO *   SUNNY     68  48  49 NE13G20   30.17R
OELWEIN *      SUNNY     68  55  64 N13       30.20S
WATERLOO       MOSUNNY   69  55  60 N9        30.19S
$$

IAZ064-065-067-068-078-281700-
   EAST CENTRAL IOWA

CITY           SKY/WX    TMP DP  RH WIND       PRES   REMARKS
DAVENPORT      MOSUNNY   68  52  56 N15       30.16R
IOWA CITY      SUNNY     70  51  51 N15G28    30.18S
MT. PLEASANT * MOSUNNY   70  52  52 N10       30.18R
MUSCATINE *    MOSUNNY   70  52  52 N12G18    30.16S
QUAD CITIES    MOSUNNY   68  49  50 N14       30.14S
$$

IAZ062-063-075>077-085>089-095>099-281700-
   SOUTHEAST IOWA

CITY           SKY/WX    TMP DP  RH WIND       PRES   REMARKS
BURLINGTON     MOSUNNY   68  52  56 N15G22    30.16R
FAIRFIELD *    SUNNY     70  54  56 N13       30.19S
FORT MADISON * SUNNY     70  54  56 N10       30.17S
KEOKUK *       MOSUNNY   70  55  60 N12       30.16S
OSKALOOSA *      N/A     70  55  60 NE9       30.21R
CENTERVILLE *  SUNNY     68  55  64 N8        30.22S
OTTUMWA        SUNNY     70  53  54 NE9       30.18S
WASHINGTON *   SUNNY     70  54  56 N10       30.18S
$$

ABBREVIATIONS USED IN REMARKS
   TC - TEMPERATURES IN CELSIUS
  WCI - WIND CHILL INDEX
   HX - HEAT INDEX
  VSB - VISIBILITY
$$



USA.gov is the U.S. government's official web portal to all federal, state and local government web resources and services.